World > North America > United States > Texas

Hourly Hillje, TX Regional Weather

Feedback E-mail the Weather

Quick WX

Hillje, TX Weather Maps

°F °C°F °C
Hillje Weather Map
UTC Time: 7/1/2022, 01:13
Your Time:

Hillje, TX Regional Weather

Expires:202207010200;;468069
ASUS44 KSJT 010110
RWRSJT
WEST CENTRAL TEXAS REGIONAL WEATHER ROUNDUP
NATIONAL WEATHER SERVICE SAN ANGELO TX
800 PM CDT THU JUN 30 2022

NOTE: "FAIR" INDICATES FEW OR NO CLOUDS BELOW 12,000 FEET WITH NO
SIGNIFICANT WEATHER AND/OR OBSTRUCTIONS TO VISIBILITY.


TXZ163-177-195>197-199-213-226-237-010200-
SOUTHEAST TEXAS
  
CITY           SKY/WX    TMP DP  RH WIND       PRES   REMARKS
COLLEGE STN    MOCLDY    86  69  56 SE15      29.96R                  
CALDWELL       PTCLDY    86  69  56 SE15      29.95S                  
CROCKETT       MOCLDY    82  72  69 SE6       29.97S                  
BRENHAM        MOCLDY    84  71  65 SE8       29.97R                  
HUNTSVILLE     MOCLDY    85  70  60 VRB3      29.97S                  
CONROE         MOCLDY    80  70  71 SE8       29.98R                  
HOUSTON BUSH   CLOUDY    78  71  79 E12       29.97S                  
HOUSTON HOBBY  CLOUDY    80  72  76 SE8       29.96S                  
PERLAND        CLOUDY    80  72  76 SE6       29.98R                  
WHARTON        MOCLDY    83  70  65 E8        29.95S                  
$$


SKY/WX - Weather  TMP - Temperature  DP - Dew Point  RH - Humidity
WIND - Wind Direction/Speed PRES - Barometric Pressure VSB - Visibility
WCI - Wind Chill Index E13G22 Wind - East Wind 13 mph/Gusts of 22 mph

Trending Headlines

Hillje Radar Loop



Hillje Quick Facts


National Two Day Weather Forecast


E-mail the Hillje Weather Forecast

Voice your opinion or tell us about page issues...